{"data":{"norad_id":63991,"intl_designator":"2025-100K","name":"SCS-01 K","alt_names":[],"object_type":"PAYLOAD","status":"ACTIVE","operator":null,"country":"PRC","launch_date":"2025-05-14","launch_site_code":"JSC","launch_vehicle":null,"mission":null,"orbit_class":"UNKNOWN","rcs_meters":null,"size_class":null,"mass_kg":null,"dimensions":null,"purposes":[],"wikipedia_slug":null,"has_3d_model":false,"image_url":null,"decayed_at":null,"tle_current":{"epoch":"2026-09-21T23:15:08.301312Z","epoch_age_seconds":72016,"freshness":"FRESH","line1":"1 63991U 25100K   26264.96884608  .00008085  00000+0  36746-3 0  9994","line2":"2 63991  97.3555 335.5269 0008356 348.1026  12.0011 15.20979532 75339","mean_motion":15.20979532,"eccentricity":0.0008356,"inclination_deg":97.3555,"raan_deg":335.5269,"arg_perigee_deg":348.1026,"mean_anomaly_deg":12.0011,"bstar":0.00036746,"rev_number":7533,"period_min":94.675830259628,"perigee_km":497.13492970239,"apogee_km":508.63449318656,"semimajor_km":6881.0217114445,"source":"CELESTRAK","updated_at":"2026-09-22T09:00:29.480240Z"}}}